Regional Weather Roundup
Issued by NWS

Home | Current Version | Previous Version | Text Only | Print | Product List | Glossary On
Versions: 1 2 3 4 5 6 7 8 9 10 11 12 13 14 15 16 17 18 19 20 21 22 23 24 25 26 27 28 29 30 31 32 33 34 35 36 37 38 39 40 41 42 43 44 45 46 47 48 49 50
000
ASUS42 KKEY 310510
RWRKEY

FLORIDA REGIONAL WEATHER ROUNDUP FOR THE FLORIDA KEYS
NATIONAL WEATHER SERVICE KEY WEST FLORIDA
100 AM EDT THU JUL 31 2014

...SOUTH FLORIDA AND THE KEYS...

CITY           SKY/WX    TMP DP  RH WIND       PRES   REMARKS
FORT MYERS     MOCLDY    79  75  87 CALM      29.97S
SW REGIONAL AP MOCLDY    79  75  87 CALM      29.98S
NAPLES         LGT RAIN  79  79 100 NE8       29.98S
MIAMI          MOCLDY    80  76  87 SE3       30.00S
WEST KENDALL   PTCLDY    82  77  84 S3        29.99F HX  90
HOMESTEAD      PTCLDY    80  76  89 S5        29.99F
MARATHON       CLOUDY    80  78  94 CALM      30.00S
BOCA CHICA NAS MOCLDY    85  76  74 SW13      29.99F HX  94
KEY WEST INTL  HVY RAIN  83  73  72 VRB5      30.00S

...INTERNATIONAL WEATHER...

CITY           SKY/WX    TMP DP  RH WIND       PRES   REMARKS
NASSAU BAHAMAS NOT AVBL
CANCUN MEXICO  PTCLDY    75  73  94 CALM      30.03S
COZUMEL MEXICO PTCLDY    75  75 100 CALM      30.02F

ADJACENT COASTAL WATERS...

STATION/POSITION TIME  SKY/WX   TEMP    WIND        PRES    WAVE
                                AIR SEA DIR/SP/G            HT/PER
                 (UTC)          (F)     (DEG/KT/KT) (MB)    (FT/S)
PULASKI SHOAL LI 0500            85     250/  3/  5 1015.5F
SAND KEY         0500            85     220/  7/  8 1015.8F
SOMBRERO KEY     0400            85     220/  8/  9 1016.7R
LONG KEY         0400            80 91   30/ 11/ 13 1017.1R
MOLASSES REEF    0400            84 87  230/  5/  6 1016.0R
FOWEY ROCKS      0400            84 86  160/  9/ 10 1016.1S
Buoy 42080       NOT AVBL

$$


USA.gov is the U.S. government's official web portal to all federal, state and local government web resources and services.